This is the latest recevied weather packets stored in our database for station/object EA5CLU-13. If no packets are shown the sender has not sent any weather packets the latest 10 day(s).
| Time | Temp. | Humidity | Pressure | Rain* | Wind** | Luminosity | Snow |
|---|---|---|---|---|---|---|---|
| 1787994880 | 23.89° C | - | 1023.1 hPa | 0 mm | - | - | - |
| 1787994581 | 23.33° C | - | 1023.2 hPa | 0 mm | - | - | - |
| 1787994279 | 23.33° C | - | 1023 hPa | 0 mm | - | - | - |
| 1787993979 | 23.33° C | - | 1023.1 hPa | 0 mm | - | - | - |
| 1787993679 | 22.78° C | - | 1023.1 hPa | 0 mm | - | - | - |
| 1787993378 | 22.78° C | - | 1022.9 hPa | 0 mm | - | - | - |
| 1787993079 | 22.22° C | - | 1023 hPa | 0 mm | - | - | - |
| 1787992780 | 22.22° C | - | 1023.1 hPa | 0 mm | - | - | - |
| 1787992480 | 21.67° C | - | 1023 hPa | 0 mm | - | - | - |
| 1787991879 | 21.11° C | - | 1023 hPa | 0 mm | - | - | - |
| 1787991579 | 21.11° C | - | 1022.8 hPa | 0 mm | - | - | - |
| 1787991278 | 20.56° C | - | 1023.1 hPa | 0 mm | - | - | - |
| 1787990978 | 20° C | - | 1023.1 hPa | 0 mm | - | - | - |
| 1787990680 | 20° C | - | 1022.9 hPa | 0 mm | - | - | - |
| 1787989779 | 19.44° C | - | 1022.9 hPa | 0 mm | - | - | - |
| 1787989479 | 19.44° C | - | 1023.1 hPa | 0 mm | - | - | - |
| 1787989179 | 18.89° C | - | 1023 hPa | 0 mm | - | - | - |
| 1787988880 | 18.33° C | - | 1023 hPa | 0 mm | - | - | - |
| 1787988580 | 18.33° C | - | 1022.9 hPa | 0 mm | - | - | - |
| 1787988279 | 17.78° C | - | 1022.9 hPa | 0 mm | - | - | - |
| 1787987980 | 17.78° C | - | 1022.8 hPa | 0 mm | - | - | - |
| 1787987681 | 17.22° C | - | 1023 hPa | 0 mm | - | - | - |
| 1787987080 | 16.67° C | - | 1022.9 hPa | 0 mm | - | - | - |
| 1787986779 | 16.11° C | - | 1022.9 hPa | 0 mm | - | - | - |
| 1787986179 | 15.56° C | - | 1023 hPa | 0 mm | - | - | - |
* Rain latest hour (hover to see other rain measurements)
** Current wind speed in m/s (hover to see current wind gust speed)